This is the latest recevied weather packets stored in our database for station/object K1WJY. If no packets are shown the sender has not sent any weather packets the latest 10 day(s).
| Time | Temp. | Humidity | Pressure | Rain* | Wind** | Luminosity | Snow |
|---|---|---|---|---|---|---|---|
| 1787958752 | 21.67° C | 99% | 1016.4 hPa | 0 mm | - | 1 W/m² | - |
| 1787958448 | 21.67° C | 99% | 1016.4 hPa | 0 mm | - | 2 W/m² | - |
| 1787958144 | 21.67° C | 99% | 1016.4 hPa | 0 mm | - | 2 W/m² | - |
| 1787957842 | 21.67° C | 99% | 1016.4 hPa | 0 mm | - | 6 W/m² | - |
| 1787957536 | 21.67° C | 99% | 1016.6 hPa | 0 mm | - | 9 W/m² | - |
| 1787957232 | 21.67° C | 99% | 1016.3 hPa | 0 mm | - | 9 W/m² | - |
| 1787956927 | 21.67° C | 99% | 1016.6 hPa | 0 mm | - | 12 W/m² | - |
| 1787956627 | 21.67° C | 98% | 1016.7 hPa | 0 mm | - | 14 W/m² | - |
| 1787956321 | 21.67° C | 98% | 1016.4 hPa | 0 mm | - | 23 W/m² | - |
| 1787956017 | 21.67° C | 98% | 1016.7 hPa | 0 mm | - | 18 W/m² | - |
| 1787955712 | 21.67° C | 97% | 1016.5 hPa | 0 mm | - | 13 W/m² | - |
| 1787955408 | 21.67° C | 97% | 1016.5 hPa | 0 mm | - | 21 W/m² | - |
| 1787955106 | 21.67° C | 97% | 1016.6 hPa | 0 mm | - | 37 W/m² | - |
| 1787954802 | 21.67° C | 97% | 1016.3 hPa | 0 mm | - | 54 W/m² | - |
| 1787954498 | 21.67° C | 97% | 1016.5 hPa | 0 mm | - | 68 W/m² | - |
| 1787954197 | 21.67° C | 97% | 1016.5 hPa | 0 mm | - | 56 W/m² | - |
| 1787953892 | 21.67° C | 96% | 1016.7 hPa | 0 mm | - | 36 W/m² | - |
| 1787953592 | 22.22° C | 96% | 1016.4 hPa | 0 mm | - | 43 W/m² | - |
| 1787953292 | 22.78° C | 96% | 1016.8 hPa | 0 mm | - | 49 W/m² | - |
| 1787952989 | 22.78° C | 95% | 1016.4 hPa | 0 mm | - | 52 W/m² | - |
| 1787952684 | 22.78° C | 95% | 1016.3 hPa | 0 mm | - | 91 W/m² | - |
| 1787952384 | 23.33° C | 95% | 1016.5 hPa | 0 mm | - | 144 W/m² | - |
| 1787952080 | 23.33° C | 95% | 1016.7 hPa | 0 mm | - | 149 W/m² | - |
| 1787951779 | 23.33° C | 95% | 1016.3 hPa | 0 mm | - | 110 W/m² | - |
| 1787951475 | 23.33° C | 95% | 1016.2 hPa | 0 mm | - | 134 W/m² | - |
* Rain latest hour (hover to see other rain measurements)
** Current wind speed in m/s (hover to see current wind gust speed)